#timestamp,LO_Frequency,Hit,StdDev 
1593234015.8,286046978.4,P
1593234035.6,286046974.6,Y
1593234055.4,286046996.8,P
1593234075.3,286047002.8,N
1593234095.1,286047002.7,N
1593234115.9,286047000.1,N
1593234135.7,286047002.3,N
1593234155.5,286047004.8,N
1593234175.4,286047002.3,N
1593234195.2,286046997.2,N
1593234215.0,286047002.9,N
1593234215.9,286047002.9,N
1593234235.8,286047002.0,N
1593234255.6,286047000.7,N
1593234275.5,286047005.0,N
1593234295.3,286047010.5,N
1593234315.1,286047009.9,N
1593234335.9,286047010.1,N
1593234355.7,286047010.6,N
1593234375.5,286047013.9,N
1593234395.4,286047013.3,N
1593234415.2,286047017.6,N
1593234435.0,286047020.6,N
1593234436.0,286047020.6,N
1593234455.8,286047022.1,N
1593234475.6,286047022.1,N
1593234495.5,286047019.3,N
1593234515.3,286047018.5,N
1593234535.1,286047018.4,N
1593234555.9,286047019.1,N
1593234575.7,286047021.3,N
1593234595.6,286047026.8,N
1593234615.4,286047029.7,Y
1593234635.2,286047021.1,P
1593234655.1,286047026.8,P
1593234656.0,286047026.8,P
1593234675.8,286047029.5,Y
1593234695.7,286047012.2,P
1593234715.5,286047019.6,P
1593234735.3,286047023.3,P
1593234755.2,286047023.7,Y
1593234775.0,286047002.9,P
1593234775.9,286047002.9,N
1593234795.7,286047001.6,N
1593234815.6,286047002.0,N
1593234835.4,286046997.1,N
1593234855.3,286046994.2,N
1593234875.1,286046993.1,N
1593234876.0,286046993.1,N
1593234895.8,286046986.0,N
1593234915.7,286046982.0,N
1593234935.5,286046972.2,N
1593234955.3,286046971.6,N
1593234975.2,286046974.1,N
1593234995.0,286046973.6,N
1593234995.9,286046973.6,N
1593235015.8,286046973.1,N
1593235035.6,286046971.4,N
1593235055.4,286046974.5,N
1593235075.3,286046978.4,N
1593235095.1,286046977.9,N
1593235115.9,286046981.7,N
1593235135.7,286046984.0,N
1593235155.5,286046985.5,N
1593235175.4,286046989.3,N
1593235195.2,286046994.2,N
1593235215.0,286046997.3,N
1593235216.0,286046997.3,N
1593235235.8,286047002.2,N
1593235255.6,286047001.9,N
1593235275.5,286047002.7,N
1593235295.3,286047001.8,N
1593235315.1,286047003.2,N
1593235335.9,286047007.4,N
1593235355.7,286047004.5,N
1593235375.6,286047008.1,N
1593235395.4,286047011.0,N
1593235415.2,286047016.0,N
1593235435.1,286047019.4,N
1593235436.0,286047019.4,N
1593235455.8,286047024.0,N
1593235475.7,286047024.9,N
1593235495.5,286047025.0,N
1593235515.3,286047026.8,N
1593235535.2,286047026.4,N
1593235555.0,286047025.0,N
1593235555.9,286047025.0,N
1593235575.7,286047024.0,N
1593235595.6,286047020.9,N
1593235615.4,286047017.7,N
1593235635.3,286047020.4,N
1593235655.1,286047023.5,N
1593235656.0,286047023.5,N
1593235675.8,286047023.4,N
1593235695.7,286047020.0,N
1593235715.5,286047016.0,N
1593235735.3,286047015.4,N
1593235755.2,286047013.9,N
1593235775.0,286047011.1,N
1593235775.9,286047011.1,N
1593235795.8,286047011.8,N
1593235815.6,286047009.7,N
1593235835.4,286047009.5,N
1593235855.3,286047010.0,N
1593235875.1,286047009.2,N
1593235895.8,286047007.2,N
1593235915.7,286047005.7,N
1593235935.5,286047002.4,N
1593235955.4,286046997.8,N
1593235975.2,286046994.5,N
1593235995.0,286046993.0,N
1593235995.9,286046993.0,N
1593236015.8,286046987.5,N
1593236035.6,286046982.2,N
1593236055.4,286046977.3,N
1593236075.3,286046975.8,N
1593236095.1,286046977.4,N
1593236115.9,286046981.9,N
1593236135.7,286046984.3,N
1593236155.5,286046986.2,N
1593236175.4,286046988.3,N
1593236195.2,286046987.6,N
1593236215.1,286046986.4,N
1593236216.0,286046986.4,N
1593236235.8,286046980.9,N
1593236255.6,286046980.3,N
1593236275.5,286046976.4,N
1593236295.3,286046978.7,N
1593236315.1,286046977.7,N
1593236335.9,286046977.6,N
1593236355.7,286046979.6,N
1593236375.6,286046981.4,N
1593236395.4,286046984.0,N
1593236415.2,286046982.7,N
1593236435.1,286046980.5,N
1593236436.0,286046980.5,N
1593236455.8,286046980.8,N
1593236475.7,286046983.6,N
1593236495.5,286046982.6,Y
1593236515.3,286047000.9,P
1593236535.2,286047000.9,N
1593236555.0,286047001.2,N
1593236555.9,286047001.2,N
1593236575.8,286046998.2,N
1593236595.6,286046998.4,N
1593236615.4,286046999.9,N
1593236635.3,286047004.3,N
1593236655.1,286047005.6,N
1593236656.0,286047005.6,N
1593236675.8,286047006.9,N
1593236695.7,286047008.1,N
1593236715.5,286047011.4,N
1593236735.3,286047013.1,N
1593236755.2,286047011.1,N
1593236775.0,286047008.5,N
1593236775.9,286047008.5,N
1593236795.8,286047003.9,N
1593236815.6,286046999.6,N
1593236835.4,286046994.9,N
1593236855.3,286046992.9,N
1593236875.1,286046987.7,N
1593236895.8,286046990.6,N
1593236915.7,286046994.8,N
1593236935.5,286046991.7,N
1593236955.4,286046992.0,N
1593236975.2,286046990.7,N
1593236995.0,286046986.3,N
1593236995.9,286046986.3,N
1593237015.8,286046980.8,N
1593237035.6,286046977.8,N
1593237055.4,286046977.4,N
1593237075.3,286046978.6,N
1593237095.1,286046977.6,N
1593237115.9,286046979.9,N
1593237135.7,286046978.2,N
1593237155.5,286046977.8,N
1593237175.4,286046981.9,N
1593237195.2,286046981.3,N
1593237215.0,286046980.7,N
1593237215.9,286046980.7,N
1593237235.8,286046979.4,N
1593237255.6,286046979.2,N
1593237275.5,286046980.4,N
1593237295.3,286046979.1,N
1593237315.1,286046982.0,N
1593237335.9,286046983.4,N
1593237355.7,286046983.1,N
1593237375.5,286046983.0,N
1593237395.4,286046982.9,Y
1593237415.2,286046999.2,P
1593237435.1,286046997.3,N
1593237436.0,286046997.3,N
1593237455.8,286046997.5,N
1593237475.6,286046995.3,N
1593237495.5,286046993.5,N
1593237515.3,286046992.7,N
1593237535.1,286046989.4,N
1593237555.9,286046985.8,Y
1593237575.7,286046992.0,P
1593237595.6,286046988.5,P
